Find Starlink 11493

NORAD ID: 62410 Int'l Des: 2024-249 Owner: SPXS Country: US Constellation: starlink operational
LEOCIRCULAR

現在のビュー

3D地球を読み込み中...

Starlink 11493について

説明を読み込み中...

次回通過

Passes for default location (London). Set your location on the main map for personalized predictions.

高度履歴

Loading altitude history...

軌道要素

1 62410U 24249B 26159.46963385 .00154911 00000-0 11866-2 0 9996
2 62410 43.0005 340.8518 0002028 271.2607 88.8028 15.70874560 83753
Epoch: Jun 8, 2026 • Age: 13 hours

現在のステータス

高度 359.8 km
速度 7.69 km/s
衛星直下点 -20.04°S, 82.46°W
打ち上げ日 Dec 23, 2024
運用期間 1.4 years
タイプ internet

技術仕様

分類 Payload
質量 960.00 kg
乾燥質量 910.00 kg
総質量 960.00 kg
長さ 0.30 m
直径 4.10 m
スパン 29.00 m
形状 Box + pan
製造者 SPXS
バスタイプ Starlink V2MD
フェーズステータス In Orbit
所有者/国 SPXS/US

Most Searched